Other Public Products
Issued by NWS Grand Forks, ND

Home | Current Version | Previous Version | Graphics & Text | Print | Product List | Glossary On
Versions: 1 2 3 4 5 6 7 8 9 10 11 12 13 14 15 16 17 18 19 20 21 22 23 24 25 26 27 28 29 30 31 32 33 34 35 36 37 38 39 40 41 42 43 44 45 46 47 48 49 50
000
FPUS83 KFGF 280410
OPUFGF
PRAIRIE TO PINES WEATHER ROUNDUP
NATIONAL WEATHER SERVICE EASTERN NORTH DAKOTA/GRAND FORKS ND
1100 PM CDT THU JUL 27 2017

 **SATELLITE DATA USED TO AUGMENT SKY COVER AT AUTOMATED STATIONS**
 *****  WEATHER ACROSS EASTERN NORTH DAKOTA  *****

CITY           SKY/WX    TMP DP  RH WIND       PRES   REMARKS
GRAND FORKS    FAIR      66  62  87 W3        30.05R
GRAND FORKS AF FAIR      64  60  88 CALM      30.06S
GRAND CITY NWS NOT AVBL
BUXTON         NOT AVBL
DEVILS LAKE    FAIR      70  60  70 SE7       30.07S
FARGO          FAIR      66  61  84 CALM      30.06R
WAHPETON ARPT  FAIR      66  61  82 CALM      30.07R
$$

 *****  WEATHER ACROSS CENTRAL AND WESTERN NORTH DAKOTA  *****

CITY           SKY/WX    TMP DP  RH WIND       PRES   REMARKS
JAMESTOWN      FAIR      68  59  73 SE8       30.06S
BISMARCK       FAIR      73  60  63 SE12      30.03S
MINOT          MOCLDY    72  58  61 E7        30.03R
MINOT AFB      MOCLDY    69  58  69 SE5       30.02R
GARRISON         N/A     68  62  81 E7        30.03R
WILLISTON      FAIR      70  61  73 SE5       30.01R
DICKINSON      FAIR      65  61  87 NE3       30.04R
HETTINGER      FAIR      62  54  74 CALM      30.06R
$$

 *****  OTHER OBSERVATIONS NORTHEAST NORTH DAKOTA  *****

CITY           SKY/WX    TMP DP  RH WIND       PRES   REMARKS
WALHALLA       NOT AVBL
LANGDON        FAIR      61  61 100 E6        30.08F
CAVALIER       FAIR      68  64  88 CALM      30.05S
GRAFTON        FAIR      66  61  82 S3        30.07R
CANDO          NOT AVBL
FORT TOTTEN      N/A     69  55  59 SE3       29.95S
ROLLA            N/A     61  61 100 CALM      30.08S
RUGBY          NOT AVBL
 ***** THE ABOVE OBSERVATIONS ARE NON NWS ARE NOT QUALITY
        CONTROLLED AND MAY MIS-REPORT RAIN FOR SNOW...
$$

 *****  OTHER OBSERVATIONS SOUTHEAST NORTH DAKOTA *****

CITY           SKY/WX    TMP DP  RH WIND       PRES   REMARKS
COOPERSTOWN    FAIR      64  61  88 E5        30.08S
VALLEY CITY    FAIR      66  61  82 CALM      30.09S
OAKES          NOT AVBL
GWINNER        CLEAR     64  61  88 CALM      30.07S
SHEYENNE NWR     N/A     65  63  93 CALM      29.95S
BUFFALO          N/A     64  59  82 SW6         N/A
WYNDMERE       NOT AVBL
 ***** THE ABOVE OBSERVATIONS ARE NON NWS ARE NOT QUALITY
       CONTROLLED AND MAY MIS-REPORT RAIN FOR SNOW...
$$

  *****  WEATHER ACROSS NORTHERN MINNESOTA  *****

CITY           SKY/WX    TMP DP  RH WIND       PRES   REMARKS
FLAG ISLAND    FAIR      72  63  73 CALM      30.05S
WARROAD        FAIR      63  59  88 SW3       30.07S
ROSEAU         FAIR      64  59  82 CALM      30.07R
HALLOCK        FAIR      64  63  94 CALM      30.05S
THF RVR FALLS  FAIR      64  61  90 CALM      30.08S
HALSTAD        NOT AVBL
FOSSTON        FAIR      61  55  82 CALM      30.09S
BAUDETTE       FAIR      61  60  97 S5        30.07R
WASKISH        FAIR      61  59  94 CALM      30.08S FOG
CROOKSTON      FAIR      66  63  88 CALM      30.07R
$$
  *****  WEATHER ACROSS CENTRAL AND WEST MINNESOTA  *****

CITY           SKY/WX    TMP DP  RH WIND       PRES   REMARKS
BEMIDJI        FAIR      61  55  81 CALM      30.09S
PARK RAPIDS    FAIR      67  59  75 CALM      30.09R
WADENA         FAIR      64  57  77 NE3       30.08S
DETROIT LAKES  FAIR      70  61  73 CALM      30.09F
MOORHEAD       FAIR      68  61  77 CALM      30.07S
FERGUS FALLS   FAIR      70  63  78 NE3       30.06S
ELBOW LAKE     FAIR      73  64  75 CALM      30.07S
MORRIS MN      FAIR      70  61  73 CALM      30.06S
STAPLES        FAIR      64  61  88 CALM      30.08R
WHEATON        FAIR      66  61  82 CALM      30.08S
$$
  *****  WEATHER ELSEWHERE ACROSS MINNESOTA  *****

CITY           SKY/WX    TMP DP  RH WIND       PRES   REMARKS
DULUTH         FAIR      59  59 100 CALM      30.08S
INTRNTL FALLS  FAIR      57  53  86 CALM      30.07S
ELY            FAIR      57  57 100 CALM      30.09S
CLOQUET        FAIR      63  54  72 CALM      30.08F
BRAINERD       FAIR      64  63  96 CALM      30.07S
HIBBING        FAIR      56  56 100 CALM      30.09S
ALEXANDRIA     FAIR      69  63  81 CALM      30.09R
SAINT CLOUD    FAIR      65  64  97 CALM      30.06R
MINNEAPOLIS    FAIR      74  59  59 NE5       30.04R
$$

  *****  WEATHER ACROSS SOUTH DAKOTA  *****

CITY           SKY/WX    TMP DP  RH WIND       PRES   REMARKS
SIOUX FALLS    FAIR      69  64  84 CALM      30.05F
BROOKINGS      FAIR      71  63  75 E3        30.07F
WATERTOWN      FAIR      69  59  70 E3        30.07S
HURON          FAIR      71  63  75 E5        30.04R
SISSETON         N/A     67  62  84 CALM      30.05S
ABERDEEN       FAIR      72  63  73 E7        30.05S
MITCHELL       FAIR      69  65  86 SE6       30.05R
PIERRE         FAIR      76  58  53 SE13      30.01R
MOBRIDGE       FAIR      73  59  61 SE7       30.00S
RAPID CITY     FAIR      60  56  86 SW12      30.06R
$$

  *****  SOME WEATHER IN NEARBY STATES *****

CITY           SKY/WX    TMP DP  RH WIND       PRES   REMARKS
GLASGOW MT     FAIR      74  52  46 SE10      29.94S
GREAT FALLS MT FAIR      74  40  29 SW8       29.96R
CHEYENNE WY    FAIR      69  56  62 SW8       30.16S
SCOTTSBLUFF NE FAIR      67  62  84 SE14      30.06R
OMAHA NE       FAIR      71  66  84 CALM      30.01S
DES MOINES IA  FAIR      75  61  61 NE5       29.99S
DAVENPORT IA   FAIR      68  64  87 N8        29.99R
CHICAGO IL     FAIR      70  59  68 N10       29.94S
EAU CLAIRE WI  FAIR      69  61  75 N3        30.02S
LA CROSSE WI   MOCLDY    75  65  70 NW5       30.00R
$$

  *****  SOME NATIONAL WEATHER *****

CITY           SKY/WX    TMP DP  RH WIND       PRES   REMARKS
LA GUARDIA NY  MOCLDY    76  71  85 SW8       29.86F
RALEIGH NC     LGT RAIN  76  73  91 S3        29.93F
ATLANTA GA     MOCLDY    75  72  90 CALM      29.98S
NEW ORLEANS LA FAIR      83  77  82 SW5       29.96S HX  92
OKLAHOMA CITY  CLOUDY    80  72  76 SW3       29.93R
ALBUQUERQUE NM MOCLDY    71  61  70 S12       30.24R
SALT LAKE CITY FAIR      82  53  36 N5        30.06R
LOS ANGELES CA FAIR      68  64  87 SW8       29.89R
BOISE ID       FAIR      85  44  23 CALM      29.97S
SEATTLE WA     FAIR      64  55  72 NW5       30.10S
$$

*** WEATHER ACROSS MANITOBA...SASKATCHEWAN AND ONTARIO ***
                ***ONTARIO***

CITY           SKY/WX    TMP DP  RH WIND       PRES   REMARKS
GERALDTON      CLEAR     57  50  77 CALM      30.09R
THUNDER BAY    PTCLDY    59  57  94 SW3       30.06F
SIOUX LOOKOUT  PTCLDY    55  55 100 CALM      30.07R
TORONTO        PTCLDY    66  59  77 N14       29.93R
BIG TROUT LK   MOCLDY    68  59  73 S5        29.99S
PICKLE LAKE    NOT AVBL
DRYDEN         CLEAR     68  59  73 SW2       30.07S
KENORA         PTCLDY    68  57  68 N6        30.08R
$$
                *** MANITOBA***

CITY           SKY/WX    TMP DP  RH WIND       PRES   REMARKS
BRANDON        PTCLDY    63  57  82 E3        30.04S
DAUPHIN        CLEAR     66  59  77 S6        30.01R
ISLAND LAKE    NOT AVBL
PILOT MOUND      N/A     63  59  88 E6          N/A
THE PAS        PTCLDY    70  61  73 S6        29.92R
THOMPSON       PTCLDY    75  55  50 S6        29.88S
WINNIPEG       PTCLDY    72  59  64 S3        30.05S
LYNN LAKE      CLEAR     68  55  64 SW5       29.85S
CHURCHILL      CLOUDY    55  50  82 SE18      29.86F
GILLAM         PTCLDY    72  57  60 S6        29.87S
$$
                ***SASKATCHEWAN***

CITY           SKY/WX    TMP DP  RH WIND       PRES   REMARKS
ESTEVAN        MOCLDY    68  61  77 SE6       30.02R
KINDERSLEY     PTCLDY    77  54  44 SE18G25   29.83S
LLOYDMINSTER   MOCLDY    73  57  56 S14G20    29.76F
PRINCE ALBERT  CLOUDY    72  64  78 SE8       29.89F
REGINA         PTCLDY    70  57  64 SE13      29.98R
YORKTON        CLEAR     70  57  64 S8        30.00F



USA.gov is the U.S. government's official web portal to all federal, state and local government web resources and services.